Find Starlink 35968

NORAD ID: 66636 Int'l Des: 2025-271 Owner: SPXS Country: US Constellation: starlink operational
LEOCIRCULAR

Current View

Loading 3D Globe...

About Starlink 35968

Description loading...

Upcoming Passes

Passes for default location (London). Set your location on the main map for personalized predictions.

Altitude History

Loading altitude history...

Two-Line Element Set

1 66636U 25271V 26151.17981156 .00034929 00000-0 11854-2 0 9995
2 66636 53.1589 116.9619 0001383 76.1547 283.9608 15.30212216 30190
Epoch: May 31, 2026 • Age: 14 hours

Current Status

Altitude 489.6 km
Velocity 7.62 km/s
Sub-Earth Point -41.30°S, 177.79°E
Launch Date Nov 23, 2025
Age 0.5 years
Type internet

Technical Details

Classification Payload
Mass 575.00 kg
Dry Mass 530.00 kg
Total Mass 575.00 kg
Length 0.30 m
Diameter 4.10 m
Span 29.00 m
Shape Box + pan
Manufacturer SPXS
Bus Type Starlink V2MO
Phase Status In Orbit
Owner/State SPXS/US

Most Searched